Location: *
(49.3500°N, 12.6000°E)
Time: 01:02:36
(UTC+00:00)

STARLINK-34 - Pass Details

Date: 18 October 2019
Orbit: 548 x 552 km, 53.0° (Epoch: 13 November)

Event Time Altitude Azimuth Distance (km) Brightness Sun altitude
Rises 17:56:56 0° 270° (W) 2,716 8.9 -17.5°
Reaches altitude 10° 17:59:12 10° 275° (W) 1,824 7.6 -17.8°
Maximum altitude 18:03:16 52° 353° (N) 687 4.1 -18.5°
Enters shadow 18:04:41 35° 49° (NE) 909 4.4 -18.7°
